SCP
0 0 0 0 0 0 0 0 0 0 0 0 0 1 1 1 1 2 2 3 5 6 9 13 13 10 7 6 7 7 6 4 4 4 4 3 2 2 3 3 4 4 4 5
0 0 0 0 0 0 0 0 0 0 0 0 0 1 1 1 1 2 3 4 5 7 10 13 13 9 7 7 7 7 5 4 4 4 4 3 3 3 4 4 5 5 5 5
0 0 0 0 0 0 0 0 0 0 0 0 0 1 2 2 2 2 2 3 4 6 10 12 10 8 6 6 6 6 5 4 4 4 4 4 4 4 5 5 6 7 6 6
0 0 0 0 0 0 0 0 0 0 0 0 0 1 2 2 2 2 2 2 3 5 8 9 8 7 6 6 6 5 5 5 5 5 4 4 5 5 5 6 7 7 6 6
0 0 0 0 0 0 0 0 0 0 0 0 0 1 2 2 3 3 2 2 3 5 7 8 8 7 6 5 6 6 6 6 6 5 5 5 5 5 5 5 6 7 6 6
0 0 0 0 0 0 0 0 0 0 0 0 0 0 1 2 3 4 3 2 3 5 6 7 8 7 6 6 7 8 7 7 7 7 6 6 6 5 5 5 6 6 6 6
0 0 0 0 0 0 0 0 0 0 0 0 0 1 1 2 3 4 3 2 3 5 6 7 7 7 7 7 8 9 8 8 8 8 7 7 6 5 5 6 6 6 6 6
0 0 0 0 0 0 0 0 0 0 0 0 1 1 1 2 2 3 3 2 4 5 6 7 8 9 8 8 8 9 9 9 9 8 7 7 6 6 6 7 7 6 5 5
0 0 0 0 0 0 0 0 0 0 0 0 1 1 1 2 2 2 2 3 4 5 5 6 10 11 9 7 7 9 10 11 10 8 7 7 6 6 7 8 7 5 4 3
0 0 0 0 0 0 0 0 0 0 0 0 1 1 1 2 2 2 2 4 5 4 4 6 10 12 10 7 7 9 11 12 11 9 7 6 5 6 7 8 6 5 4 3
0 0 0 0 0 0 0 0 0 0 0 0 0 1 1 2 2 3 3 4 5 4 3 5 8 10 9 8 8 9 10 11 10 9 8 7 5 5 6 6 5 5 4 4
0 0 0 0 0 0 0 0 0 0 0 0 0 1 1 2 3 3 4 5 5 4 4 5 8 10 10 10 9 10 10 9 8 9 8 7 6 6 5 5 5 5 5 5
0 0 0 0 0 0 0 0 0 0 0 0 1 1 1 2 3 3 4 5 5 5 4 6 8 11 11 10 10 10 9 7 6 7 7 7 7 6 5 5 4 5 5 5
0 0 0 0 0 0 0 0 0 0 0 0 0 1 1 3 4 4 5 6 6 6 6 6 7 9 9 9 9 8 7 5 5 5 6 6 6 6 5 4 3 4 4 4
0 0 0 0 0 0 0 0 0 0 0 0 0 1 1 3 4 5 5 6 6 7 6 6 6 7 7 8 8 7 6 5 5 5 5 6 6 5 4 3 3 3 3 3
0 0 0 0 0 0 0 0 0 0 0 0 1 1 2 4 5 6 6 6 7 7 6 6 7 7 7 7 7 7 6 6 6 6 6 5 5 4 4 3 3 3 3 4
0 1 0 0 0 0 0 0 0 0 0 1 2 3 4 5 6 7 8 7 7 6 6 6 7 7 7 7 7 8 7 7 6 6 5 5 5 4 4 3 3 3 4 4
1 1 1 0 0 0 0 0 0 0 1 3 4 5 5 6 8 9 9 8 7 6 7 7 7 7 7 7 8 8 8 7 6 5 5 5 5 5 4 4 4 3 4 4
1 1 1 1 0 0 1 1 1 1 3 4 6 6 6 7 8 9 8 8 7 8 8 8 8 8 8 8 8 8 7 6 5 5 5 5 5 5 5 5 4 4 4 4
1 1 1 1 1 1 2 2 1 1 3 5 5 6 7 7 7 7 8 8 8 9 10 10 9 9 9 8 8 7 6 6 5 5 5 6 6 6 5 5 5 4 4 4
1 1 1 1 1 1 2 3 2 3 4 5 6 6 7 7 9 9 9 9 10 11 11 11 11 11 10 9 8 7 6 6 5 5 6 7 7 7 6 5 5 4 3 3
1 1 1 1 2 3 4 4 4 5 6 6 6 6 7 9 11 13 11 10 11 12 12 13 14 14 12 10 9 7 6 5 5 5 6 7 8 7 6 6 5 4 3 3
2 3 3 3 4 5 6 6 6 6 6 6 6 7 8 11 13 13 12 11 11 13 14 15 16 15 13 10 8 7 6 6 5 5 5 6 7 7 7 6 5 4 3 2
4 4 5 5 6 7 7 7 7 7 7 7 6 6 9 11 12 11 10 10 11 12 12 13 13 13 10 8 7 7 6 6 5 5 4 5 6 7 7 6 4 3 2 2
5 6 6 6 7 7 7 7 8 8 8 7 6 6 8 9 9 8 7 8 8 8 8 8 8 8 7 6 6 6 5 5 4 4 3 4 5 7 6 4 2 1 1 1
5 7 7 6 6 6 7 8 9 9 8 6 5 6 7 7 6 6 5 6 6 6 6 6 5 5 5 6 6 5 5 4 3 3 2 3 5 7 5 3 1 0 0 0
Wind_Speed
11 12 13 13 13 12 11 8 4 4 3 4 5 6 7 9 10 11 11 12 14 14 14 13 13 13 12 10 9 8 7 6 5 4 4 4 4 3 3 4 5 6 6 6
12 15 15 13 9 11 11 11 5 4 4 5 6 6 6 7 8 9 10 11 14 14 14 13 12 12 12 11 10 9 8 8 7 4 3 3 3 3 4 4 4 5 6 6
17 12 13 13 11 11 12 11 7 5 4 7 8 8 8 7 6 7 10 11 13 15 16 15 14 13 13 12 11 9 9 8 7 6 4 3 2 2 2 2 3 4 5 5
16 14 9 11 13 12 12 10 7 6 6 7 9 8 7 8 8 8 9 10 12 14 15 16 15 13 12 12 11 9 9 8 7 6 5 5 4 4 3 2 2 3 4 5
14 14 13 13 13 12 10 7 8 9 9 11 10 9 5 8 8 8 8 8 9 10 12 14 14 12 12 12 11 9 9 7 7 6 6 5 4 3 2 2 2 3 3 4
16 13 13 13 13 11 9 8 9 10 10 12 11 10 4 5 5 5 6 6 7 8 8 11 12 11 10 10 10 10 9 7 7 6 6 5 4 3 2 2 2 3 2 3
17 15 13 12 14 13 12 9 7 8 9 10 10 9 3 5 6 5 5 7 8 9 9 10 11 11 9 9 9 9 9 7 6 6 5 4 4 3 3 2 2 2 2 3
17 16 16 13 14 12 14 14 10 8 8 7 8 8 5 7 7 6 4 6 10 10 10 10 10 10 9 9 8 8 8 7 6 6 5 4 4 3 2 2 2 2 2 3
14 16 16 15 15 16 15 15 16 14 14 9 5 6 5 8 7 7 6 7 8 9 10 11 11 10 9 9 8 8 7 6 6 5 4 4 3 2 2 1 2 2 2 2
13 11 14 17 14 17 16 14 10 11 10 9 6 7 6 11 9 8 7 7 8 8 9 9 10 9 9 8 8 7 7 6 5 4 4 4 3 2 1 1 1 0 1 2
18 12 12 15 16 17 16 16 12 9 10 10 7 3 2 8 8 8 8 7 7 7 7 8 8 8 8 7 8 7 6 5 4 3 3 2 2 2 1 1 0 1 1 1
16 11 11 14 14 15 16 16 14 10 8 9 8 2 3 6 7 6 8 8 8 9 8 9 9 9 8 7 8 7 6 5 5 4 3 2 2 2 1 1 1 1 2 2
13 10 11 13 14 16 15 15 15 14 10 9 10 3 7 5 6 7 9 9 8 9 8 8 9 9 8 7 7 7 6 5 4 4 4 3 2 2 2 2 2 2 2 2
9 10 12 13 11 14 16 16 16 15 10 11 10 5 6 5 5 7 8 8 8 9 8 8 9 8 7 7 6 6 5 5 5 4 4 3 2 2 2 3 3 3 3 3
9 12 13 14 13 13 15 16 17 16 14 12 10 9 9 8 7 8 8 9 9 10 9 9 9 8 7 7 6 5 5 5 5 4 4 4 3 3 4 4 4 4 4 4
9 9 12 14 15 13 13 15 16 16 15 14 11 6 5 7 7 7 7 8 9 9 10 10 10 9 8 7 6 6 5 5 5 5 5 4 4 4 5 5 5 4 5 5
12 8 10 12 15 15 15 14 14 13 14 12 10 6 4 6 7 7 6 7 7 8 9 10 10 9 8 7 6 6 6 6 5 5 5 4 5 5 5 5 5 5 5 5
7 8 8 11 12 16 10 10 11 12 11 8 6 4 4 6 8 7 6 6 7 8 9 9 9 9 9 8 7 7 7 6 6 6 5 5 5 6 6 6 6 6 5 5
7 7 9 10 13 13 10 10 10 9 6 5 5 4 5 8 8 7 6 6 6 7 8 8 9 9 8 8 8 7 7 7 6 6 5 5 5 6 6 6 6 6 6 6
10 7 9 10 11 11 8 8 6 8 6 4 4 5 6 7 5 5 7 7 8 7 6 7 8 9 8 7 8 7 7 6 6 6 6 6 5 6 6 5 5 6 6 6
14 12 13 12 10 6 5 4 6 8 3 3 3 4 5 4 5 7 8 8 8 8 7 8 8 8 7 7 7 7 7 6 6 7 7 6 6 6 6 5 5 6 6 7
14 13 13 12 10 5 4 1 2 4 6 6 6 7 8 10 10 10 9 8 8 8 8 8 8 7 6 7 7 7 7 7 7 7 7 6 6 5 6 6 5 5 6 6
8 6 5 4 2 5 7 8 7 6 7 7 7 8 9 10 10 9 9 7 7 7 7 8 9 8 7 6 7 8 7 7 7 7 7 6 6 5 5 4 4 4 3 4
5 3 4 3 5 6 7 8 7 6 7 6 6 7 9 9 10 9 8 7 7 7 8 8 8 8 7 7 8 8 7 7 7 7 7 6 6 6 6 4 4 4 3 3
2 3 5 5 5 5 6 5 6 6 7 7 6 6 7 9 9 9 7 7 6 6 6 7 7 8 8 8 8 8 7 7 8 7 6 6 7 7 7 8 8 7 7 5
2 1 1 2 3 4 5 5 5 6 5 5 5 6 7 8 8 8 7 6 6 6 6 7 8 8 8 8 8 7 6 7 7 6 6 5 6 6 7 8 8 14 11 13
Wind_Direction
215 230 234 231 228 255 270 269 229 178 169 219 203 184 187 181 187 175 174 175 172 175 176 170 172 170 167 163 164 172 183 174 177 186 190 206 214 211 208 210 197 194 206 204
220 228 238 247 243 252 265 267 250 208 189 242 232 215 196 188 188 180 182 179 175 173 173 171 174 174 169 168 171 176 184 179 186 193 197 211 213 212 210 218 195 200 208 210
227 229 225 236 239 243 252 256 254 232 198 240 253 239 208 193 194 191 189 185 180 176 176 174 178 180 175 173 178 183 182 182 188 193 192 220 216 236 235 218 206 215 212 216
233 239 229 231 237 234 246 251 254 258 248 251 244 251 200 188 195 199 200 188 184 180 176 175 179 180 179 176 179 176 175 179 183 191 203 212 216 223 227 215 209 213 222 227
226 227 228 230 235 234 248 263 256 247 246 255 251 256 212 185 198 202 199 194 178 174 174 173 175 176 179 177 173 173 173 178 181 193 205 214 230 233 237 212 211 220 222 231
240 227 224 231 233 234 243 249 254 256 256 252 251 259 233 185 189 203 202 180 155 153 163 168 166 167 172 170 169 173 169 174 182 193 203 209 230 235 240 234 222 226 230 231
231 233 220 223 227 219 226 229 226 228 232 243 239 243 212 166 167 178 187 155 146 149 160 163 162 163 165 165 165 163 161 174 182 190 201 207 220 228 232 243 239 239 249 243
211 220 214 212 225 218 215 228 235 241 242 238 233 236 202 161 148 152 149 137 145 156 157 154 151 153 157 158 157 155 159 170 178 185 192 199 209 221 225 236 247 251 251 254
214 217 203 206 218 232 217 225 242 254 270 272 237 229 180 154 157 158 150 151 153 153 149 150 150 153 153 156 155 152 152 159 171 181 182 187 197 211 214 212 227 248 261 268
249 235 207 195 208 227 238 230 238 251 266 271 253 222 206 168 170 168 164 160 151 148 148 146 144 143 145 152 142 139 143 149 156 166 181 178 187 194 197 242 254 317 319 323
239 245 222 198 202 217 220 232 240 253 259 263 259 252 197 156 165 169 161 152 147 136 134 130 129 130 132 134 133 133 135 138 141 151 157 140 145 156 177 221 292 57 47 355
225 238 236 214 205 220 225 226 230 239 252 267 273 267 87 125 148 157 146 139 134 129 136 129 132 128 129 135 134 132 132 135 139 137 135 132 131 130 128 91 43 61 65 49
214 234 232 221 207 208 227 230 232 233 236 249 259 212 130 158 155 148 137 129 128 133 131 129 126 125 130 131 126 127 129 130 131 129 132 125 116 109 99 80 74 77 78 69
229 228 237 231 218 204 215 228 231 234 231 237 239 209 157 169 160 141 136 138 140 131 128 127 121 120 120 117 116 122 128 126 122 119 120 114 106 102 94 85 77 72 73 71
231 226 237 253 254 232 216 218 225 232 236 238 238 220 184 182 171 149 143 139 139 139 141 136 131 127 126 122 124 127 124 119 114 117 113 106 99 90 92 87 79 72 68 73
220 243 234 244 253 251 230 220 221 227 233 240 245 238 180 154 136 133 143 148 147 148 146 140 135 135 134 133 136 129 122 117 113 110 102 97 95 90 90 90 86 79 74 70
200 227 241 238 239 246 237 222 221 225 228 236 239 229 172 135 133 133 136 144 146 143 145 142 140 139 138 138 133 128 123 118 114 106 100 98 95 93 87 90 90 83 75 69
213 211 234 246 242 239 240 233 230 228 224 219 222 211 159 137 124 122 125 130 139 141 141 141 142 141 140 138 132 126 124 120 116 111 103 97 96 95 90 86 85 82 79 76
211 220 233 237 240 235 238 231 227 223 224 197 191 177 140 127 125 125 120 120 118 126 127 134 138 135 132 131 127 126 121 117 115 110 104 100 100 96 90 87 87 84 83 78
204 213 240 238 241 234 226 230 216 214 205 172 162 152 149 148 161 135 116 111 110 106 111 123 126 126 124 126 128 125 121 119 114 109 103 98 98 99 97 93 93 94 92 89
200 204 226 242 242 251 258 231 217 217 168 108 121 120 127 111 86 106 107 103 108 111 118 118 119 121 119 119 120 121 118 114 110 108 105 98 95 97 100 97 96 99 98 97
200 203 214 233 237 234 348 170 124 79 72 85 91 96 100 100 100 106 105 106 112 116 121 121 115 113 112 117 122 120 114 110 108 107 105 102 102 104 104 103 106 108 112 111
203 210 213 219 173 90 64 77 75 79 79 84 90 98 106 114 115 113 112 114 114 117 119 119 119 114 111 112 117 118 113 113 112 107 103 101 96 87 95 104 111 121 127 122
192 184 174 141 126 102 89 84 75 70 80 86 95 106 114 115 118 119 120 119 117 116 120 121 122 119 115 111 111 112 113 113 113 110 106 104 99 89 73 70 72 70 58 82
304 232 186 148 129 113 82 72 79 82 91 100 100 103 110 116 123 125 122 121 119 116 117 120 121 121 119 116 114 114 118 120 119 117 115 110 101 94 78 63 45 55 48 38
337 296 245 118 113 115 104 79 77 82 87 99 108 108 113 121 124 125 125 123 125 125 122 119 118 119 121 121 119 121 125 126 128 132 134 125 120 115 111 104 82 53 58 56